Weather History for Marysville, OH

Change the Weather History Date:

Thursday, October 17, 2013

  Actual Average (KDLZ) Record (KDLZ)
Temperature  
Mean Temperature 45 °F -  
Max Temperature 53 °F 62 °F 87 °F (1938)
Min Temperature 37 °F 39 °F 23 °F (1977)
Degree Days  
Heating Degree Days 20    
Moisture  
Dew Point 42 °F    
Average Humidity 85    
Maximum Humidity 97    
Minimum Humidity 74    
Precipitation  
Precipitation 0.04 in - - ()
Sea Level Pressure  
Sea Level Pressure 29.91 in    
Wind  
Wind Speed 3 mph (West)    
Max Wind Speed 13 mph    
Max Gust Speed 17 mph    
Visibility 8 miles    
Events      
Averages and records for this station are not official NWS values.
T = Trace of Precipitation, MM = Missing Value Source: NWS Daily Summary

Daily Weather History Graph

Daily Weather History Graph

Search for Another Location

Airport:

Trip Planner

Search our weather history database for the weather conditions in past years. The results will help you decide how hot, cold, wet, or windy it might be!

Date:

Astronomy

Oct. 17, 2013 Rise Set
Actual Time 7:46 AM EDT 6:50 PM EDT
Civil Twilight 7:19 AM EDT 7:17 PM EDT
Nautical Twilight 6:47 AM EDT 7:49 PM EDT
Astronomical Twilight 6:15 AM EDT 8:20 PM EDT
Moon 6:03 PM EDT (10/17) 6:17 AM EDT (10/17)
Length of Visible Light 11h 58m
Length of Day
11h 03m
Waxing Gibbous, 98% of the Moon is Illuminated
Oct 17
Waxing Gibbous
Oct 18
Full
Oct 26
Last Quarter
Nov 3
New
Nov 10
First Quarter

Hourly Weather History & Observations

Time (EDT) Temp. Windchill Dew Point Humidity Pressure Visibility Wind Dir Wind Speed Gust Speed Precip Events Conditions
12:13 AM 45.5 °F - 40.6 °F 83% 29.96 in 10.0 mi Calm Calm - N/A   Clear
12:33 AM 43.9 °F - 40.5 °F 88% 29.96 in 10.0 mi Calm Calm - N/A   Clear
12:53 AM 43.0 °F - 40.3 °F 90% 29.96 in 10.0 mi Calm Calm - N/A   Clear
1:14 AM 42.3 °F - 39.6 °F 90% 29.95 in 10.0 mi Calm Calm - N/A   Clear
1:33 AM 41.4 °F 39.4 °F 39.0 °F 91% 29.96 in 10.0 mi West 3.5 mph - N/A   Clear
1:53 AM 42.8 °F - 40.6 °F 92% 29.96 in 10.0 mi Calm Calm - N/A   Clear
2:14 AM 42.3 °F - 40.1 °F 92% 29.96 in 10.0 mi Calm Calm - N/A   Clear
2:33 AM 41.5 °F - 39.6 °F 93% 29.96 in 7.0 mi Calm Calm - N/A   Clear
2:53 AM 41.2 °F - 39.4 °F 93% 29.96 in 7.0 mi Calm Calm - N/A   Clear
3:13 AM 40.3 °F - 38.7 °F 94% 29.95 in 5.0 mi Calm Calm - N/A   Clear
3:34 AM 40.8 °F - 39.4 °F 95% 29.94 in 7.0 mi Calm Calm - N/A   Clear
3:53 AM 39.7 °F - 38.3 °F 95% 29.95 in 3.0 mi Calm Calm - N/A   Clear
4:13 AM 39.4 °F - 38.3 °F 96% 29.94 in 4.0 mi Calm Calm - N/A   Clear
4:34 AM 39.7 °F - 38.5 °F 95% 29.94 in 4.0 mi Calm Calm - N/A   Clear
4:53 AM 39.9 °F - 38.7 °F 95% 29.93 in 3.0 mi Calm Calm - N/A   Clear
5:13 AM 39.4 °F - 38.3 °F 96% 29.92 in 0.8 mi Calm Calm - N/A   Unknown
5:34 AM 39.2 °F - 38.1 °F 96% 29.93 in 2.5 mi Calm Calm - N/A   Clear
5:53 AM 39.4 °F - 38.5 °F 97% 29.93 in 4.0 mi Calm Calm - N/A   Clear
6:13 AM 38.7 °F - 37.6 °F 96% 29.93 in 2.0 mi Calm Calm - N/A   Clear
6:34 AM 39.0 °F - 37.9 °F 96% 29.93 in 2.5 mi Calm Calm - N/A   Clear
6:53 AM 38.3 °F - 37.2 °F 96% 29.93 in 2.0 mi Calm Calm - N/A   Clear
7:13 AM 37.9 °F - 37.0 °F 97% 29.93 in 2.5 mi Calm Calm - N/A   Clear
7:34 AM 38.5 °F - 37.6 °F 97% 29.92 in 2.0 mi Calm Calm - N/A   Clear
7:53 AM 38.3 °F - 37.4 °F 97% 29.92 in 0.8 mi Calm Calm - N/A   Unknown
8:13 AM 38.3 °F - 37.4 °F 97% 29.91 in 1.0 mi Calm Calm - N/A   Unknown
8:34 AM 40.6 °F - 39.6 °F 96% 29.91 in 2.5 mi Calm Calm - N/A   Clear
8:53 AM 42.6 °F - 41.4 °F 95% 29.92 in 4.0 mi Calm Calm - N/A   Clear
9:13 AM 43.9 °F 41.3 °F 42.8 °F 96% 29.92 in 5.0 mi WSW 4.6 mph - N/A   Clear
9:33 AM 45.7 °F 43.4 °F 44.1 °F 94% 29.92 in 7.0 mi SW 4.6 mph - N/A   Clear
9:53 AM 47.1 °F - 43.7 °F 88% 29.93 in 7.0 mi WSW 4.6 mph - N/A   Clear
10:13 AM 49.1 °F - 43.7 °F 82% 29.92 in 10.0 mi WNW 4.6 mph - N/A   Clear
10:33 AM 49.8 °F - 43.0 °F 77% 29.91 in 10.0 mi Calm Calm - N/A   Scattered Clouds
10:54 AM 50.2 °F - 43.0 °F 76% 29.92 in 10.0 mi SW 3.5 mph - N/A   Mostly Cloudy
11:13 AM 50.4 °F - 43.2 °F 76% 29.90 in 10.0 mi Calm Calm - N/A   Overcast
11:33 AM 50.7 °F - 43.7 °F 77% 29.89 in 10.0 mi Calm Calm - N/A   Overcast
11:53 AM 50.9 °F - 43.3 °F 75% 29.90 in 10.0 mi WSW 5.8 mph - N/A   Overcast
12:13 PM 50.5 °F - 44.1 °F 78% 29.90 in 7.0 mi West 4.6 mph - N/A   Overcast
12:33 PM 50.4 °F - 45.0 °F 82% 29.92 in 4.0 mi West 10.4 mph - N/A   Overcast
12:53 PM 50.0 °F - 45.5 °F 85% 29.90 in 4.0 mi West 5.8 mph - 0.01 in   Overcast
1:13 PM 49.5 °F - 45.5 °F 86% 29.88 in 2.5 mi Calm Calm - 0.01 in   Overcast
1:33 PM 50.0 °F - 45.5 °F 85% 29.86 in 7.0 mi WSW 3.5 mph - 0.02 in   Overcast
1:53 PM 50.0 °F - 45.7 °F 85% 29.86 in 10.0 mi West 6.9 mph - 0.03 in   Overcast
2:13 PM 51.3 °F - 46.0 °F 82% 29.85 in 7.0 mi WSW 3.5 mph - N/A   Overcast
2:33 PM 51.8 °F - 46.0 °F 81% 29.84 in 10.0 mi West 6.9 mph - N/A   Overcast
2:53 PM 52.0 °F - 46.0 °F 80% 29.85 in 10.0 mi West 8.1 mph - N/A   Overcast
3:13 PM 53.1 °F - 45.7 °F 76% 29.85 in 10.0 mi West 10.4 mph - N/A   Overcast
3:33 PM 52.0 °F - 45.1 °F 77% 29.85 in 10.0 mi West 9.2 mph - N/A   Overcast
3:53 PM 51.6 °F - 44.4 °F 76% 29.84 in 10.0 mi West 11.5 mph - N/A   Overcast
4:13 PM 51.4 °F - 44.2 °F 76% 29.85 in 10.0 mi West 11.5 mph - N/A   Overcast
4:34 PM 51.8 °F - 44.4 °F 76% 29.85 in 10.0 mi West 11.5 mph 16.1 mph N/A   Overcast
4:53 PM 51.6 °F - 44.2 °F 76% 29.85 in 10.0 mi West 9.2 mph - N/A   Overcast
5:13 PM 51.4 °F - 43.3 °F 74% 29.86 in 10.0 mi West 11.5 mph 17.3 mph N/A   Overcast
5:34 PM 51.3 °F - 44.1 °F 76% 29.86 in 10.0 mi West 6.9 mph - N/A   Overcast
5:53 PM 51.3 °F - 43.7 °F 75% 29.87 in 10.0 mi West 9.2 mph 16.1 mph N/A   Overcast
6:13 PM 50.4 °F - 44.2 °F 80% 29.87 in 7.0 mi West 8.1 mph - N/A   Overcast
6:34 PM 50.0 °F - 43.7 °F 79% 29.88 in 10.0 mi WNW 12.7 mph 16.1 mph N/A   Overcast
6:53 PM 49.6 °F - 44.1 °F 81% 29.88 in 7.0 mi West 9.2 mph - N/A   Overcast
7:13 PM 49.6 °F - 43.9 °F 81% 29.89 in 10.0 mi West 8.1 mph - N/A   Overcast
7:34 PM 49.6 °F - 43.7 °F 80% 29.90 in 10.0 mi West 10.4 mph - N/A   Overcast
7:53 PM 49.6 °F - 43.7 °F 80% 29.90 in 10.0 mi West 9.2 mph - N/A   Overcast
8:13 PM 49.6 °F - 43.7 °F 80% 29.91 in 10.0 mi West 8.1 mph - N/A   Overcast
8:34 PM 49.1 °F - 44.1 °F 83% 29.92 in 7.0 mi West 8.1 mph - N/A   Overcast
8:53 PM 49.3 °F - 43.7 °F 81% 29.93 in 10.0 mi West 10.4 mph - N/A   Overcast
9:13 PM 49.6 °F - 42.8 °F 77% 29.94 in 10.0 mi West 9.2 mph - N/A   Overcast
9:33 PM 49.5 °F - 41.9 °F 75% 29.94 in 10.0 mi West 10.4 mph 17.3 mph N/A   Overcast
9:54 PM 49.3 °F - 41.4 °F 74% 29.95 in 10.0 mi West 11.5 mph - N/A   Overcast
10:13 PM 48.2 °F - 40.6 °F 75% 29.94 in 10.0 mi West 9.2 mph - N/A   Scattered Clouds
10:33 PM 46.8 °F - 40.5 °F 79% 29.95 in 10.0 mi West 8.1 mph - N/A   Clear
10:53 PM 45.7 °F 42.0 °F 40.3 °F 81% 29.95 in 10.0 mi WSW 6.9 mph - N/A   Clear
11:13 PM 44.6 °F 41.4 °F 39.9 °F 84% 29.95 in 10.0 mi WSW 5.8 mph - N/A   Clear
11:33 PM 44.2 °F 40.3 °F 39.9 °F 85% 29.95 in 10.0 mi SW 6.9 mph - N/A   Clear
11:53 PM 44.2 °F 39.7 °F 40.1 °F 85% 29.96 in 10.0 mi WSW 8.1 mph - N/A   Clear